Effective Sunday, March 17, 2024, the National Weather Service National Data Buoy Center will discontinue its Dial-A-Buoy Interactive Voice Response system. For more information, see Service Change Notice 24-06 (PDF).

Station 41008 (LLNR 833) - GRAYS REEF - 40 NM Southeast of Savannah, GA Image indicating link to RSS feed of recent meteorological observations for station 41008


Conditions at 41008 as of
(10:10 am EST)
1510 GMT on 02/26/2024:
     

Click on the graph icon in the table below to see a time series plot of the last five days of that observation.

5-day plot - Wind Direction Wind Direction (WDIR): SW ( 220 deg true )
5-day plot - Wind Speed Wind Speed (WSPD): 1.9 kts
5-day plot - Wind Gust Wind Gust (GST): 3.9 kts
5-day plot - Atmospheric Pressure Atmospheric Pressure (PRES):30.26 in
5-day plot - Air Temperature Air Temperature (ATMP): 57.9 °F
5-day plot - Water Temperature Water Temperature (WTMP): 56.5 °F
5-day plot - Dew Point Dew Point (DEWP): 51.3 °F
5-day plot - Wind Speed at 10 Meters Wind Speed at 10 meters (WSPD10M): 1.9 kts
5-day plot - Wind Speed at 20 Meters Wind Speed at 20 meters (WSPD20M): 3.9 kts
5-day plot -  Wind Speed, Wind Gust and Atmospheric Pressure Combined plot of Wind Speed, Gust, and Air Pressure
Supplemental Measurements
Highest 1-minute Wind Speed
Time (EST)5-day plot - 1-Minute Wind Speed WSPD 5-day plot - 1-Minute Wind Direction WDIR
10:03 am 3.9 kts-
Previous observations
TIME
(EST)
5-day plot - Wind Direction
WDIR
 
5-day plot - Wind Speed
WSPD
kts
5-day plot - Wind Gust
GST
kts
5-day plot - Wave Height
WVHT
ft
5-day plot - Dominant Wave Period
DPD
sec
5-day plot - Average Wave Period
APD
sec
5-day plot - Mean Wave Direction
MWD
 
5-day plot - Atmospheric Pressure
PRES
in
5-day plot - Pressure Tendency
PTDY
in
5-day plot - Air Temperature
ATMP
°F
5-day plot - Water Temperature
WTMP
°F
5-day plot - Dew Point
DEWP
°F
5-day plot - Salinity
SAL
psu
5-day plot - Visibility
VIS
nmi
5-day plot - Tide (above MLLW)
TIDE
ft
2024-02-26 10:00 am SW 3.9 3.9----30.26+0.04 57.6 56.5 51.6---
2024-02-26 09:50 am SW 3.9 3.9 1.3 106.0 E30.26- 57.4 56.5 52.2---
2024-02-26 09:40 am SW 3.9 3.9----30.26- 57.4 56.5 52.5---
2024-02-26 09:30 amSSW 3.9 3.9----30.25- 57.6 56.5 52.9---
2024-02-26 09:20 amSSW 3.9 3.9 1.3 106.0ENE30.25- 57.2 56.5 53.1---
2024-02-26 09:10 amSSW 3.9 3.9 1.3-6.0ENE30.25- 57.4 56.5 53.2---
2024-02-26 09:00 am S 3.9 3.9----30.24+0.02 57.7 56.3 52.9---
2024-02-26 08:50 am S 3.9 3.9 1.3 115.9 E30.24- 57.9 56.3 52.5---
2024-02-26 08:40 am S 1.9 3.9----30.24- 57.9 56.3 52.7---
2024-02-26 08:30 amSSE 3.9 3.9----30.23- 57.7 56.3 52.3---
2024-02-26 08:20 am SE 3.9 3.9 1.3 115.5ENE30.23- 57.2 56.3 52.0---
2024-02-26 08:10 am SE 3.9 3.9 1.3-5.5ENE30.23- 57.2 56.3 53.2---
2024-02-26 08:00 amSSE 3.9 3.9----30.23+0.02 57.2 56.3 53.2---
2024-02-26 07:50 amSSE 1.9 3.9 1.3 115.6 E30.23- 57.0 56.3 52.9---
2024-02-26 07:40 amSSE 1.9 3.9----30.23- 56.8 56.3 52.9---
2024-02-26 07:30 am SE 1.9 3.9----30.23- 56.5 56.3 52.7---
2024-02-26 07:20 amESE 1.9 3.9 1.3 95.3 E30.23- 56.1 56.3 52.3---
2024-02-26 07:10 amESE 1.9 3.9----30.22- 55.8 56.3 52.2---
2024-02-26 07:00 amESE 1.9 3.9----30.22+0.02 55.8 56.1 52.2---
2024-02-26 06:50 amESE 1.9 3.9 1.3 105.4ENE30.22- 55.8 56.3 52.0---
2024-02-26 06:40 am E 3.9 3.9----30.22- 55.8 56.3 52.0---
2024-02-26 06:30 am E 1.9 3.9----30.22- 55.8 56.3 51.6---
2024-02-26 06:20 am E 1.9 3.9 1.0 104.9 E30.22- 55.6 56.3 51.6---
2024-02-26 06:10 am E 1.9 3.9 1.0-4.9 E30.22- 55.6 56.3 51.6---
2024-02-26 06:00 am E 1.9 1.9----30.22+0.01 55.6 56.3 51.8---
2024-02-26 05:50 am E 1.9 1.9 1.0 94.8 E30.22- 55.6 56.3 51.8---
2024-02-26 05:40 amESE 1.9 1.9----30.22- 55.6 56.3 51.8---
2024-02-26 05:30 am SE 1.9 1.9----30.22- 55.8 56.5 52.0---
2024-02-26 05:20 amSSE 1.9 3.9 1.3 74.7 E30.22- 55.8 56.7 51.6---
2024-02-26 05:10 amSSE 1.9 3.9 1.3-4.7 E30.22- 55.8 56.5 51.6---
2024-02-26 05:00 amSSE 1.9 3.9----30.21+0.00 55.9 56.7 51.6---
2024-02-26 04:50 am S 1.9 3.9 1.3 94.6 E30.21- 56.1 56.5 51.4---
2024-02-26 04:40 amSSE 1.9 3.9----30.21- 56.1 56.5 50.9---
2024-02-26 04:30 am SE 1.9 3.9----30.21- 56.1 56.5 50.5---
2024-02-26 04:20 amESE 3.9 3.9 1.3 104.6ESE30.21- 56.1 56.3 49.8---
2024-02-26 04:10 amESE 3.9 3.9 1.3-4.6ESE30.21- 56.1 56.3 49.8---
2024-02-26 04:00 am SE 3.9 3.9----30.21+0.00 56.3 56.3 50.4---
2024-02-26 03:50 amSSE 3.9 5.8 1.3 104.2 E30.21- 56.3 56.3 49.8---
2024-02-26 03:40 amSSE 3.9 3.9----30.21- 56.3 56.3 49.6---
2024-02-26 03:30 am SE 3.9 3.9----30.21- 56.3 56.3 49.3---
2024-02-26 03:20 am SE 3.9 3.9 1.3 94.4ESE30.21- 56.3 56.3 49.5---
2024-02-26 03:10 am SE 1.9 3.9 1.3-4.4ESE30.21- 56.3 56.3 48.7---
2024-02-26 03:00 am SE 1.9 3.9----30.20- 56.5 56.3 48.6---
2024-02-26 02:50 am SE 1.9 3.9 1.3 104.5ENE30.22- 56.5 56.3 47.8---
2024-02-26 02:40 am SE 3.9 3.9----30.22- 56.5 56.3 47.7---
2024-02-26 02:30 amSSE 3.9 3.9----30.21- 56.5 56.3 47.5---
2024-02-26 02:20 amSSE 3.9 5.8 1.3 104.4 E30.22- 56.7 56.3 46.9---
2024-02-26 02:10 am SE 3.9 5.8 1.3-4.4 E30.22- 56.7 56.5 46.0---
2024-02-26 02:00 am SE 3.9 5.8----30.22+0.00 56.7 56.5 46.2---
2024-02-26 01:50 am SE 3.9 5.8 1.3 94.3 E30.21- 56.7 56.3 46.2---
2024-02-26 01:40 am SE 5.8 7.8----30.21- 56.7 56.5 46.0---
2024-02-26 01:30 am SE 5.8 7.8----30.21- 56.5 56.3 46.0---
2024-02-26 01:20 am SE 5.8 7.8 1.3 114.3NNE30.21- 56.5 56.3 45.5---
2024-02-26 01:10 am SE 7.8 7.8 1.3-4.3NNE30.21- 56.5 56.3 45.9---
2024-02-26 01:00 am SE 5.8 7.8----30.21-0.01 56.5 56.3 46.0---
2024-02-26 12:50 am SE 7.8 9.7 1.3 44.3 NE30.21- 56.5 56.3 45.7---
2024-02-26 12:40 am SE 7.8 9.7----30.21- 56.3 56.3 45.5---
2024-02-26 12:30 amESE 5.8 7.8----30.20- 56.3 56.3 46.4---
2024-02-26 12:20 amESE 7.8 9.7 1.3 54.3ENE30.20- 56.3 56.5 45.5---
2024-02-26 12:10 am E 7.8 9.7----30.20- 56.3 56.5 45.0---
2024-02-26 12:00 am E 7.8 9.7----30.21-0.01 56.3 56.5 45.0---
2024-02-25 11:50 pm E 7.8 7.8 1.3 54.5ENE30.21- 56.1 56.5 45.0---
2024-02-25 11:40 pm E 7.8 9.7 1.3-4.5ENE30.21- 56.1 56.5 44.8---
2024-02-25 11:30 pm E 5.8 7.8----30.21- 56.1 56.5 44.4---
2024-02-25 11:20 pm E 5.8 7.8 1.3 54.5ENE30.21- 55.9 56.5 44.4---
2024-02-25 11:10 pm E 7.8 9.7 1.3-4.5ENE30.22- 55.9 56.5 44.2---
2024-02-25 11:00 pm E 7.8 9.7----30.22+0.01 55.9 56.5 43.9---
2024-02-25 10:50 pm E 7.8 9.7 1.6 54.7ENE30.22- 55.8 56.5 43.7---
2024-02-25 10:40 pm E 7.8 9.7----30.22- 55.8 56.5 44.1---
2024-02-25 10:30 pmESE 7.8 9.7----30.22- 55.6 56.5 43.9---
2024-02-25 10:20 pmESE 7.8 9.7 1.6 54.6 NE30.22- 55.6 56.5 43.5---
2024-02-25 10:10 pmESE 7.8 9.7 1.6-4.6 NE30.22- 55.6 56.7 43.5---
2024-02-25 10:00 pmESE 7.8 9.7----30.22+0.03 55.4 56.7 42.8---
2024-02-25 09:50 pmESE 7.8 9.7 1.6 54.6 NE30.22- 55.4 56.7 42.3---
2024-02-25 09:40 pm E 7.8 7.8----30.22- 55.4 56.7 42.3---
2024-02-25 09:30 pm E 5.8 7.8----30.22- 55.4 56.7 43.0---
2024-02-25 09:20 pmESE 5.8 7.8 1.6 54.6 NE30.22- 55.2 56.8 42.3---
2024-02-25 09:10 pmESE 5.8 7.8 1.6-4.6 NE30.22- 55.2 56.8 42.3---
2024-02-25 09:00 pmESE 5.8 7.8----30.22+0.04 55.0 56.8 42.4---
2024-02-25 08:50 pmESE 5.8 7.8 1.6 54.6 NE30.22- 55.0 56.8 41.9---
2024-02-25 08:40 pmESE 5.8 7.8----30.21- 54.9 56.8 41.7---
2024-02-25 08:30 pmESE 7.8 7.8----30.21- 54.9 56.8 40.8---
2024-02-25 08:20 pmESE 5.8 7.8 1.6 54.5 NE30.21- 54.7 56.8 41.0---
2024-02-25 08:10 pmESE 7.8 9.7 1.6-4.5 NE30.20- 54.7 56.8 40.6---
2024-02-25 08:00 pmESE 7.8 9.7----30.20+0.02 54.5 56.8 41.0---
2024-02-25 07:50 pmESE 7.8 7.8 2.0 54.5 NE30.20- 54.3 56.8 39.2---
2024-02-25 07:40 pmESE 7.8 7.8----30.20- 54.1 56.7 40.3---
2024-02-25 07:30 pm SE 5.8 7.8----30.20- 54.1 56.8 41.0---
2024-02-25 07:20 pmESE 7.8 7.8 2.0 54.4 NE30.19- 54.0 56.8 40.1---
2024-02-25 07:10 pmESE 7.8 7.8 2.0-4.4 NE30.19- 54.0 56.8 39.9---
2024-02-25 07:00 pmESE 7.8 9.7----30.19+0.01 53.8- 40.6---
2024-02-25 06:50 pmESE 7.8 9.7 2.0 54.4 NE30.19- 53.8 56.8 40.3---
2024-02-25 06:40 pmESE 7.8 9.7----30.19- 53.6 56.8 40.1---
2024-02-25 06:30 pm-------30.19-------
2024-02-25 06:20 pmESE 7.8 9.7 2.0 54.2ENE30.19- 53.4 57.0 40.6---
2024-02-25 06:10 pmESE 7.8 9.7 2.0-4.2ENE30.19- 53.4 57.2 41.4---
2024-02-25 06:00 pmESE 7.8 9.7----30.18-0.01 53.4 57.2 40.6---
2024-02-25 05:50 pmESE 7.8 9.7 2.0 54.1 NE30.18- 53.4 57.0 41.0---
2024-02-25 05:40 pmESE 7.8 9.7----30.18- 53.2 57.0 41.0---
2024-02-25 05:30 pmESE 7.8 9.7----30.18- 53.2 57.0 41.4---
2024-02-25 05:20 pmESE 7.8 9.7 2.0 54.2 NE30.18- 53.1 57.0 40.8---
2024-02-25 05:10 pmESE 7.8 9.7 2.0-4.2 NE30.18- 53.1 57.0 41.0---
2024-02-25 05:00 pmESE 5.8 7.8----30.18-0.01 52.9 57.0 39.9---
2024-02-25 04:50 pmESE 5.8 7.8 2.0 54.1ENE30.18- 52.7 57.2 40.8---
2024-02-25 04:40 pm E 5.8 7.8----30.18- 52.7 57.0 40.8---
2024-02-25 04:30 pm E 5.8 7.8----30.18- 52.5 57.2 40.6---
2024-02-25 04:20 pm E 3.9 5.8 2.0 54.2 NE30.18- 52.5 57.2 40.1---
2024-02-25 04:10 pm E 3.9 5.8 2.0-4.2 NE30.18- 52.3 57.2 39.7---
2024-02-25 04:00 pm E 3.9 5.8----30.18-0.03 52.3 57.0 39.0---
2024-02-25 03:50 pm E 3.9 5.8 2.3 44.1 NE30.19- 52.3 56.8 40.6---
2024-02-25 03:40 pmENE 3.9 5.8----30.19- 52.2 56.7 40.1---
2024-02-25 03:30 pmENE 3.9 5.8----30.19- 52.0 56.7 41.0---
2024-02-25 03:20 pmENE 3.9 7.8 2.0 54.2 NE30.19- 52.0 56.8 41.4---
2024-02-25 03:10 pmENE 3.9 5.8 2.0-4.2 NE30.19- 51.8 56.8 41.7---
2024-02-25 03:00 pmNNE 3.9 5.8----30.19-0.04 51.8 56.8 41.4---
2024-02-25 02:50 pm NE 3.9 5.8 2.3 54.2 NE30.19- 51.6 56.8 41.5---
2024-02-25 02:40 pmNNE 3.9 5.8----30.19- 51.6 57.0 41.0---
2024-02-25 02:30 pmNNE 3.9 5.8----30.19- 51.6 56.8 41.7---
2024-02-25 02:20 pm N 3.9 7.8 2.3 54.1 NE30.19- 51.4 56.8 41.0---
2024-02-25 02:10 pm N 5.8 5.8 2.3-4.1 NE30.19- 51.4 56.8 41.4---
2024-02-25 02:00 pm N 5.8 7.8----30.19-0.03 51.3 56.8 41.5---
2024-02-25 01:50 pmNNE 5.8 7.8 2.3 54.2 NE30.20- 51.1 56.7 41.5---
2024-02-25 01:40 pmNNE 5.8 7.8----30.20- 51.1 56.7 41.4---
2024-02-25 01:30 pmNNE 5.8 9.7----30.21- 51.1 56.7 41.9---
2024-02-25 01:20 pmNNE 7.8 9.7 2.3 64.1 NE30.21- 51.1 56.7 41.4---
2024-02-25 01:10 pmNNE 7.8 9.7 2.3-4.1 NE30.21- 51.1 56.7 41.9---
2024-02-25 01:00 pmNNE 7.8 9.7----30.21+0.00 50.9 56.5 41.5---
2024-02-25 12:50 pm N 7.8 9.7 2.3 54.1 NE30.22- 51.1 56.5 41.9---
2024-02-25 12:40 pmNNE 7.8 11.7----30.22- 51.1 56.5 41.7---
2024-02-25 12:30 pm N 7.8 9.7----30.22- 51.1 56.5 41.7---
2024-02-25 12:20 pm N 7.8 11.7 2.6 54.1 NE30.22- 51.1 56.5 41.9---
2024-02-25 12:10 pm N 7.8 9.7 2.6-4.1 NE30.22- 51.1 56.5 41.7---
2024-02-25 12:00 pm N 7.8 9.7----30.23+0.04 51.1 56.5 41.7---
2024-02-25 11:50 am N 7.8 9.7 2.6 54.2 NE30.22- 51.3 56.3 42.1---
2024-02-25 11:40 am N 7.8 9.7----30.22- 51.3 56.5 42.3---
2024-02-25 11:30 am N 7.8 9.7----30.23- 51.3 56.5 41.9---
2024-02-25 11:20 amNNE 7.8 9.7 2.6 54.1 NE30.23- 51.3 56.3 42.1---
2024-02-25 11:10 amNNE 7.8 11.7 2.6-4.1 NE30.23- 51.3 56.3 42.1---
2024-02-25 11:00 amNNE 7.8 11.7----30.22+0.06 51.3 56.3 42.1---
2024-02-25 10:50 amNNE 9.7 13.6 2.6 54.1 NE30.22- 51.3 56.3 42.1---
2024-02-25 10:40 am N 9.7 11.7 2.6-4.1 NE30.22- 51.4 56.3 42.3---
2024-02-25 10:30 amNNE 7.8 11.7----30.22- 51.4 56.1 42.3---
2024-02-25 10:20 amNNE 9.7 11.7 2.6 53.9NNE30.22- 51.4 56.1 41.9---
2024-02-25 10:10 amNNE 7.8 11.7----30.21- 51.6 56.1 42.3---
2024-02-25 10:00 amNNE 9.7 13.6----30.21+0.08 51.6 56.1 42.4---
2024-02-25 09:50 amNNE 9.7 13.6 2.6 53.9 NE30.20- 51.4 56.1 41.9---

Detailed Wave Summary
for 41008 as of (9:40 am EST)
1440 GMT on 02/26/2024:

These wave data are displayed in rounded times.

     

Click on the graph icon in the table below to see a time series plot of the last five days of that observation.

5-day plot - Significant Wave Height Significant Wave Height (WVHT): 1.3 ft
5-day plot - Swell Height Swell Height (SwH): 1.0 ft
5-day plot - Swell Period Swell Period (SwP): 10.0 sec
5-day plot - Swell Direction Swell Direction (SwD): E
5-day plot - Wind Wave Height Wind Wave Height (WWH): 0.3 ft
5-day plot - Wind Wave Period Wind Wave Period (WWP): 3.8 sec
5-day plot - Wind Wave Direction Wind Wave Direction (WWD): E
5-day plot - Average Wave Period Average Wave Period (APD): 6.0 sec
Previous observations
TIME
(EST)
5-day plot - Wave Height
WVHT
ft
5-day plot - Swell Height
SwH
ft
5-day plot - Swell Period
SwP
sec
5-day plot - Swell Direction
SwD
 
5-day plot - Wind Wave Height
WWH
ft
5-day plot - Wind Wave Period
WWP
sec
5-day plot - Wind Wave Direction
WWD
 
5-day plot - Wave Steepness
STEEPNESS
 
5-day plot - Average Wave Period
APD
sec
2024-02-26 09:10 am 1.3 1.3 10.0ENE 0.3 3.7 ENE N/A 6.0
2024-02-26 08:40 am 1.3 1.3 11.4 E 0.3 3.7 ENE N/A 5.9
2024-02-26 08:10 am 1.3 1.3 10.8ENE 0.3 3.4 E N/A 5.5
2024-02-26 07:40 am 1.3 1.0 10.8 E 0.3 4.0 ENE N/A 5.6
2024-02-26 07:10 am 1.3 1.0 9.1 E 0.3 3.7 NE N/A 5.3
2024-02-26 06:40 am 1.3 1.0 10.0ENE 0.3 3.7 ENE N/A 5.4
2024-02-26 06:10 am 1.0 1.0 10.0 E 0.3 3.7 ENE N/A 4.9
2024-02-26 05:40 am 1.0 1.0 9.1 E 0.7 3.8 NE N/A 4.8
2024-02-26 05:10 am 1.3 1.0 6.7 E 0.7 3.8 NE N/A 4.7
2024-02-26 04:40 am 1.3 1.0 9.1 E 0.7 3.7 ENE N/A 4.6
2024-02-26 04:10 am 1.3 1.0 10.0ESE 0.7 3.2 ENE N/A 4.6
2024-02-26 03:40 am 1.3 1.0 10.0 E 0.7 3.8 NE N/A 4.2
2024-02-26 03:10 am 1.3 1.0 9.1ESE 0.7 3.8 ENE N/A 4.4
2024-02-26 02:40 am 1.3 1.0 10.0ENE 0.7 4.0 ENE N/A 4.5
2024-02-26 02:10 am 1.3 1.0 10.0 E 0.7 3.7 NE N/A 4.4
2024-02-26 01:40 am 1.3 1.0 9.1 E 0.7 3.7 NE N/A 4.3
2024-02-26 01:10 am 1.3 1.0 10.8NNE 0.7 3.7 ENE N/A 4.3
2024-02-26 12:40 am 1.3 1.0 4.2 NE 0.7 3.2 ENE N/A 4.3
2024-02-26 12:10 am 1.3 1.0 5.0ENE 0.7 3.3 NE N/A 4.3
2024-02-25 11:40 pm 1.3 1.3 5.3ENE 0.7 4.0 NE N/A 4.5
2024-02-25 11:10 pm 1.3 1.3 4.8ENE 0.7 3.8 NE N/A 4.5
2024-02-25 10:40 pm 1.6 1.3 5.3ENE 0.7 3.6 NE N/A 4.7
2024-02-25 10:10 pm 1.6 1.3 4.8 NE 0.7 3.7 NE N/A 4.6
2024-02-25 09:40 pm 1.6 1.6 5.3 NE 0.7 3.8 ENE N/A 4.6
2024-02-25 09:10 pm 1.6 1.3 5.0 NE 0.7 3.6 NE N/A 4.6
2024-02-25 08:40 pm 1.6 1.6 5.0 NE 0.7 3.6 NE N/A 4.6
2024-02-25 08:10 pm 1.6 1.6 5.3 NE 1.0 3.6 NE N/A 4.5
2024-02-25 07:40 pm 2.0 1.6 4.8 NE 1.0 3.3 NE N/A 4.5
2024-02-25 07:10 pm 2.0 1.6 5.3 NE 1.0 3.6 NE N/A 4.4
2024-02-25 06:40 pm 2.0 1.6 5.3 NE 1.0 4.0 NE N/A 4.4
2024-02-25 06:10 pm 2.0 1.6 4.5ENE 1.0 4.0 NE N/A 4.2
2024-02-25 05:40 pm 2.0 1.6 5.0 NE 1.0 4.0 NE N/A 4.1
2024-02-25 05:10 pm 2.0 1.6 4.8 NE 1.0 4.0 ENE N/A 4.2
2024-02-25 04:40 pm 2.0 1.6 5.0ENE 1.0 4.0 NE N/A 4.1
2024-02-25 04:10 pm 2.0 1.6 4.8 NE 1.0 3.8 NE N/A 4.2
2024-02-25 03:40 pm 2.3 2.0 4.3 NE 1.3 3.8 NE N/A 4.1
2024-02-25 03:10 pm 2.0 1.6 5.0 NE 1.3 3.8 NE N/A 4.2
2024-02-25 02:40 pm 2.3 2.0 5.3 NE 1.3 4.0 NE N/A 4.2
2024-02-25 02:10 pm 2.3 1.6 5.0 NE 1.3 3.8 NE N/A 4.1
2024-02-25 01:40 pm 2.3 2.0 5.3 NE 1.3 4.0 NE N/A 4.2
2024-02-25 01:10 pm 2.3 2.0 5.6 NE 1.3 3.7 NE N/A 4.1
2024-02-25 12:40 pm 2.3 2.0 4.8 NE 1.3 3.8 NE N/A 4.1
2024-02-25 12:10 pm 2.6 2.0 5.3 NE 1.3 4.0 NE N/A 4.1
2024-02-25 11:40 am 2.6 2.3 5.3 NE 1.3 3.7 NNE STEEP 4.2
2024-02-25 11:10 am 2.6 2.3 5.3 NE 1.6 4.0 NNE STEEP 4.1
2024-02-25 10:40 am 2.6 2.3 5.3 NE 1.6 4.0 NNE STEEP 4.1
2024-02-25 10:10 am 2.6 2.0 4.8NNE 1.6 3.4 NNE N/A 3.9

Plot of wave energy versus frequency (and period)